BEIDOU-3S IGSO-2S

Last updated on Mon Oct 14 2024 00:02:40 GMT+0000 (Coordinated Universal Time)

1 40938U 15053A 24286.95396689 -.00000125 00000+0 00000+0 0 9992 2 40938 50.1797 266.0270 0052645 190.2087 5.7345 1.00279282 33211
UTC large
Height (km)
Speed (km/s)
/
Latitude / Longitude
Inclination (degrees)
Orbital Period (minutes)
Azimuth
Elevation
Range (km)
Doppler Factor

Next 0 passes for location: London (51.5072 / 0.1276)

Sorry there are no passes over London.